Voltar ao catálogo

PODSAT

AtivoCiênciaHEO
NORAD 43229·PAYLOAD·🇺🇸 United States

Lançado Mar 6, 2018 de Cape Canaveral Space Force Station

Loading…

Próximas Passagens (próximas 24 horas)

TLE

AtualizadoSource: Space-Track

Época: Sep 14, 2026, 02:29 UTC

1 43229U 18023B   26257.10370373  .00069659 -32162-6  56500-3 0  9995
2 43229  26.8176 267.9256 3422202 114.6979 284.5222  8.68842094200467

Acompanhe PODSAT em tempo real com AllMySat

Download on the App Store